EW1268 Weather Reports


Display with metric or nautical units.
time (UTC)temp
F
wind
direction
speed
MPH
gust
MPH
rain 1hr
in
rain 24hr
in
rain mn
in
humidity
%
barometer
mb
20260503234526 82 234 2.0 9.0 0.00 0.00 0.00 43 1017.8
20260503234008 82 205 3.0 9.0 0.00 0.00 0.00 45 1017.7
20260503233502 82 184 3.0 10.0 0.00 0.00 0.00 45 1017.7
20260503233010 82 178 4.0 11.0 0.00 0.00 0.00 45 1017.8
20260503232507 83 238 3.0 11.0 0.00 0.00 0.00 42 1017.9
20260503232007 83 196 4.0 12.0 0.00 0.00 0.00 44 1017.9
20260503231523 83 173 3.0 12.0 0.00 0.00 0.00 42 1018.1
20260503231009 83 185 5.0 10.0 0.00 0.00 0.00 43 1018.0
20260503230509 83 198 4.0 11.0 0.00 0.00 0.00 41 1018.1
20260503230026 82 186 4.0 11.0 0.00 0.00 0.00 42 1018.1
20260503225509 83 139 2.0 12.0 0.00 0.00 0.00 45 1018.0
20260503225009 82 209 5.0 12.0 0.00 0.00 0.00 42 1018.0
20260503224515 82 196 3.0 12.0 0.00 0.00 0.00 42 1018.1
20260503224006 83 194 5.0 12.0 0.00 0.00 0.00 41 1018.2
20260503223511 83 247 3.0 11.0 0.00 0.00 0.00 42 1018.2
20260503223028 84 161 2.0 10.0 0.00 0.00 0.00 39 1018.3
20260503222509 84 148 4.0 10.0 0.00 0.00 0.00 45 1018.2
20260503222011 83 119 2.0 12.0 0.00 0.00 0.00 42 1018.4
20260503221532 84 51 5.0 12.0 0.00 0.00 0.00 40 1018.5
20260503221014 84 191 4.0 10.0 0.00 0.00 0.00 42 1018.4
20260503220509 83 163 4.0 10.0 0.00 0.00 0.00 44 1018.4
20260503220021 83 294 2.0 11.0 0.00 0.00 0.00 43 1018.4
20260503215512 83 295 2.0 11.0 0.00 0.00 0.00 42 1018.3
20260503215009 84 148 3.0 14.0 0.00 0.00 0.00 42 1018.5
20260503214524 85 191 4.0 14.0 0.00 0.00 0.00 42 1018.7
20260503214014 85 218 4.0 11.0 0.00 0.00 0.00 41 1018.6
20260503213516 86 17 3.0 8.0 0.00 0.00 0.00 40 1018.7
20260503213026 86 215 3.0 7.0 0.00 0.00 0.00 45 1018.9
20260503212510 85 205 1.0 7.0 0.00 0.00 0.00 45 1019.1
20260503212012 85 197 1.0 10.0 0.00 0.00 0.00 45 1019.2
20260503211521 84 170 2.0 10.0 0.00 0.00 0.00 45 1019.2
20260503211011 83 192 3.0 10.0 0.00 0.00 0.00 47 1019.4
20260503210515 84 175 4.0 14.0 0.00 0.00 0.00 39 1019.5
20260503210026 85 145 7.0 14.0 0.00 0.00 0.00 41 1019.4
20260503205511 86 191 6.0 11.0 0.00 0.00 0.00 45 1019.5
20260503205009 86 194 3.0 9.0 0.00 0.00 0.00 44 1019.5
20260503204527 85 178 2.0 10.0 0.00 0.00 0.00 48 1019.5
20260503204011 85 170 2.0 12.0 0.00 0.00 0.00 48 1019.6
20260503203509 85 167 3.0 12.0 0.00 0.00 0.00 49 1019.7
20260503203038 84 83 2.0 10.0 0.00 0.00 0.00 54 1019.7
20260503202510 83 88 2.0 10.0 0.00 0.00 0.00 52 1019.8
20260503202013 82 205 3.0 7.0 0.00 0.00 0.00 50 1019.8
20260503201533 83 309 2.0 9.0 0.00 0.00 0.00 42 1019.9
20260503201009 85 88 3.0 12.0 0.00 0.00 0.00 48 1020.1
20260503200511 85 165 4.0 12.0 0.00 0.00 0.00 49 1020.1
20260503200028 84 202 4.0 9.0 0.00 0.00 0.00 48 1020.3
20260503195508 84 63 2.0 7.0 0.00 0.00 0.00 49 1020.3
20260503195010 84 200 2.0 6.0 0.00 0.00 0.00 51 1020.4
20260503194525 84 187 2.0 8.0 0.00 0.00 0.00 56 1020.5
20260503194009 83 153 2.0 13.0 0.00 0.00 0.00 51 1020.5
20260503193510 83 190 3.0 13.0 0.00 0.00 0.00 52 1020.7
20260503193028 82 191 4.0 12.0 0.00 0.00 0.00 52 1020.6
20260503192512 82 232 2.0 8.0 0.00 0.00 0.00 46 1020.8
20260503192009 81 76 2.0 7.0 0.00 0.00 0.00 52 1020.9
20260503191524 81 93 2.0 7.0 0.00 0.00 0.00 46 1020.9
20260503191010 82 247 2.0 11.0 0.00 0.00 0.00 52 1021.2
20260503190516 82 187 5.0 13.0 0.00 0.00 0.00 49 1021.3
20260503190035 82 80 2.0 13.0 0.00 0.00 0.00 51 1021.3
20260503185510 83 169 3.0 9.0 0.00 0.00 0.00 50 1021.3
20260503185008 83 155 5.0 9.0 0.00 0.00 0.00 54 1021.4
20260503184517 83 213 2.0 5.0 0.00 0.00 0.00 51 1021.4
20260503184007 83 85 2.0 9.0 0.00 0.00 0.00 55 1021.4
20260503183511 83 178 2.0 10.0 0.00 0.00 0.00 55 1021.6
20260503183029 82 22 2.0 10.0 0.00 0.00 0.00 50 1021.7
20260503182515 83 88 3.0 9.0 0.00 0.00 0.00 50 1021.8
20260503182012 83 309 2.0 8.0 0.00 0.00 0.00 57 1021.9
20260503181530 82 157 3.0 11.0 0.00 0.00 0.00 53 1022.0
20260503181007 82 175 3.0 12.0 0.00 0.00 0.00 53 1022.1
20260503180510 81 186 5.0 12.0 0.00 0.00 0.00 54 1022.0
20260503180027 81 273 2.0 10.0 0.00 0.00 0.00 55 1022.2
20260503175510 81 93 1.0 12.0 0.00 0.00 0.00 53 1022.3
20260503175010 81 171 5.0 12.0 0.00 0.00 0.00 52 1022.3
20260503174525 81 207 4.0 10.0 0.00 0.00 0.00 54 1022.4
20260503174014 81 44 2.0 6.0 0.00 0.00 0.00 54 1022.5
20260503173511 81 86 3.0 9.0 0.00 0.00 0.00 55 1022.7
20260503173030 81 194 3.0 9.0 0.00 0.00 0.00 51 1022.7
20260503172509 80 141 4.0 9.0 0.00 0.00 0.00 52 1022.8
20260503172010 80 211 2.0 4.0 0.00 0.00 0.00 61 1022.8
20260503171533 79 9 1.0 7.0 0.00 0.00 0.00 52 1022.8
20260503171009 80 93 1.0 7.0 0.00 0.00 0.00 55 1022.9
20260503170511 79 169 3.0 7.0 0.00 0.00 0.00 58 1023.0
20260503151011 74 170 2.0 7.0 0.00 0.00 0.00 66 1023.1
20260503150507 73 205 3.0 8.0 0.00 0.00 0.00 69 1023.1
20260503131011 58 93 0.0 1.0 0.00 0.00 0.00 95 1022.3
20260503130507 57 9 0.0 1.0 0.00 0.00 0.00 95 1022.4
20260503110513 55 9 0.0 1.0 0.00 0.00 0.00 93 1021.5
20260503090510 56 51 0.0 1.0 0.00 0.00 0.00 92 1020.8
20260503081525 56 9 0.0 1.0 0.00 0.00 0.00 92 1020.9
20260503081009 56 51 0.0 1.0 0.00 0.00 0.00 92 1020.9
20260503080509 57 34 0.0 1.0 0.00 0.00 0.00 92 1020.9
20260503072510 57 67 0.0 1.0 0.00 0.00 0.00 91 1020.9
20260503072012 57 67 0.0 1.0 0.00 0.00 0.00 91 1020.9
20260503071528 57 9 0.0 1.0 0.00 0.00 0.00 91 1021.0
20260503071011 57 51 0.0 1.0 0.00 0.00 0.00 91 1021.1
20260503070514 57 93 0.0 1.0 0.00 0.00 0.00 91 1021.0
20260503055011 59 51 0.0 1.0 0.00 0.00 0.00 90 1021.3
20260503054528 59 119 0.0 1.0 0.00 0.00 0.00 90 1021.1
20260503054010 59 93 0.0 1.0 0.00 0.00 0.00 90 1021.1
20260503053507 59 9 0.0 2.0 0.00 0.00 0.00 90 1021.1
20260503053024 59 26 0.0 2.0 0.00 0.00 0.00 89 1021.0
20260503052508 59 26 0.0 2.0 0.00 0.00 0.00 89 1021.0
20260503052012 59 93 0.0 2.0 0.00 0.00 0.00 89 1020.8
20260503051529 59 34 0.0 1.0 0.00 0.00 0.00 89 1021.0
20260503051009 59 93 0.0 1.0 0.00 0.00 0.00 89 1020.9
20260503050508 59 67 0.0 2.0 0.00 0.00 0.00 89 1021.0
20260503050030 59 26 0.0 2.0 0.00 0.00 0.00 88 1020.9
20260503045509 59 34 0.0 1.0 0.00 0.00 0.00 88 1020.9
20260503045008 60 67 0.0 1.0 0.00 0.00 0.00 88 1020.8
20260503044528 60 76 0.0 1.0 0.00 0.00 0.00 88 1020.7
20260503044011 60 41 0.0 1.0 0.00 0.00 0.00 88 1020.8
20260503043510 60 61 0.0 2.0 0.00 0.00 0.00 88 1020.7
20260503043026 60 34 0.0 2.0 0.00 0.00 0.00 88 1020.6
20260503042508 60 9 0.0 1.0 0.00 0.00 0.00 88 1020.6
20260503042011 60 93 0.0 1.0 0.00 0.00 0.00 87 1020.6
20260503041526 60 9 0.0 1.0 0.00 0.00 0.00 87 1020.7
20260503041009 60 93 0.0 1.0 0.00 0.00 0.00 87 1020.7
20260503040511 60 93 0.0 1.0 0.00 0.00 0.00 86 1020.7
20260503040034 61 325 0.0 1.0 0.00 0.00 0.00 86 1020.7
20260503035509 61 93 0.0 1.0 0.00 0.00 0.00 86 1020.8
20260503035010 61 34 0.0 1.0 0.00 0.00 0.00 86 1020.6
20260503034528 61 51 0.0 2.0 0.00 0.00 0.00 85 1020.6
20260503034010 61 51 0.0 2.0 0.00 0.00 0.00 85 1020.5
20260503033507 62 51 0.0 2.0 0.00 0.00 0.00 84 1020.4
20260503033038 62 9 0.0 2.0 0.00 0.00 0.00 83 1020.4
20260503032510 62 319 1.0 2.0 0.00 0.00 0.00 83 1020.3
20260503032011 62 93 0.0 2.0 0.00 0.00 0.00 81 1020.2
20260503031534 63 51 0.0 1.0 0.00 0.00 0.00 81 1020.3
20260503031010 63 153 0.0 2.0 0.00 0.00 0.00 81 1020.3
20260503030505 63 93 0.0 2.0 0.00 0.00 0.00 81 1020.1
20260503030024 64 51 0.0 1.0 0.00 0.00 0.00 81 1020.0
20260503025508 64 67 0.0 1.0 0.00 0.00 0.00 80 1020.1
20260503025009 64 76 0.0 2.0 0.00 0.00 0.00 80 1020.1
20260503024524 64 93 0.0 2.0 0.00 0.00 0.00 79 1020.0
20260503024009 65 51 0.0 1.0 0.00 0.00 0.00 78 1020.0
20260503023512 65 51 0.0 1.0 0.00 0.01 0.00 77 1019.9
20260503023042 65 76 0.0 1.0 0.00 0.01 0.00 77 1020.0
20260503022506 66 93 0.0 1.0 0.00 0.01 0.00 75 1020.0
20260503022011 66 93 0.0 1.0 0.00 0.01 0.00 74 1019.8
20260503021520 67 93 0.0 1.0 0.00 0.01 0.00 75 1019.8
20260503021008 67 93 0.0 2.0 0.00 0.01 0.00 74 1019.7
20260503020508 67 67 0.0 2.0 0.00 0.01 0.00 74 1019.7
20260503020024 67 67 0.0 2.0 0.00 0.01 0.00 74 1019.6
20260503015510 68 93 0.0 2.0 0.00 0.01 0.00 73 1019.6
20260503015010 68 80 0.0 2.0 0.00 0.02 0.00 72 1019.6
20260503014514 69 61 0.0 1.0 0.00 0.02 0.00 71 1019.6
20260503014006 69 51 0.0 1.0 0.00 0.03 0.00 68 1019.5
20260503013510 70 93 0.0 3.0 0.00 0.03 0.00 67 1019.4
20260503013022 70 51 0.0 3.0 0.00 0.04 0.00 67 1019.4
20260503012512 70 93 0.0 2.0 0.00 0.05 0.00 65 1019.3
20260503012009 71 93 0.0 3.0 0.00 0.05 0.00 64 1019.3
20260503011525 71 76 0.0 3.0 0.00 0.05 0.00 63 1019.1
20260503011010 71 26 0.0 2.0 0.00 0.06 0.00 62 1019.1
20260503010509 71 76 0.0 4.0 0.00 0.07 0.00 63 1019.0
20260503010029 72 9 1.0 4.0 0.00 0.31 0.00 58 1019.1
20260503005511 73 9 0.0 5.0 0.00 0.65 0.00 58 1019.1
20260503005012 73 291 1.0 5.0 0.00 0.68 0.00 57 1019.0
20260503004526 74 51 1.0 4.0 0.00 0.69 0.00 57 1018.9
20260503004010 74 309 1.0 6.0 0.00 0.69 0.00 58 1018.7
20260503003508 74 338 1.0 6.0 0.00 0.69 0.00 55 1018.8
20260503003028 75 334 1.0 8.0 0.00 0.70 0.00 55 1018.6
20260503002509 75 34 1.0 8.0 0.00 0.70 0.00 54 1018.6
20260503002009 75 238 2.0 8.0 0.00 0.71 0.00 53 1018.6
20260503001522 77 63 1.0 8.0 0.00 0.72 0.00 53 1018.5
20260503001011 77 78 2.0 8.0 0.00 0.73 0.00 54 1018.4
20260503000509 76 76 1.0 9.0 0.00 0.75 0.00 54 1018.4
20260503000027 77 67 2.0 10.0 0.00 0.76 0.00 54 1018.4
20260502235511 76 76 2.0 10.0 0.00 0.77 0.00 53 1018.4
20260502235011 76 330 2.0 8.0 0.00 0.79 0.00 52 1018.4